Albert Lea, MN

6:14 PM CDT on April 25, 2017 (GMT -0500)
Albert Lea Municipal

Weather History for KAEL - January, 2013

Change the Weather History Date:

Sunday, January 20, 2013

  Actual Average Record
Temperature  
Mean Temperature 6 °F -  
Max Temperature 12 °F 20 °F 37 °F (2002)
Min Temperature 1 °F 6 °F -13 °F (2008)
Degree Days  
Heating Degree Days 58    
Moisture  
Dew Point 0 °F    
Average Humidity 77    
Maximum Humidity 85    
Minimum Humidity 62    
Precipitation  
Precipitation 0.00 in - - ()
Sea Level Pressure  
Sea Level Pressure 30.28 in    
Wind  
Wind Speed 10 mph (WNW)    
Max Wind Speed 16 mph    
Max Gust Speed 24 mph    
Visibility 9 miles    
Events Snow    
Averages and records for this station are not official NWS values.
T = Trace of Precipitation, MM = Missing Value Source: NWS Daily Summary

Daily Weather History Graph

Daily Weather History Graph

Search for Another Location

Airport or City:

Trip Planner

Search our weather history database for the weather conditions in past years. The results will help you decide how hot, cold, wet, or windy it might be!

Date:

Astronomy

Jan. 20, 2013 Rise Set
Actual Time 7:40 AM CST 5:08 PM CST
Civil Twilight 7:09 AM CST 5:40 PM CST
Nautical Twilight 6:34 AM CST 6:15 PM CST
Astronomical Twilight 6:00 AM CST 6:49 PM CST
Moon 12:10 PM CST (1/20) 2:12 AM CST (1/20)
Length of Visible Light 10h 31m
Length of Day
9h 28m
Waxing Gibbous, 66% of the Moon is Illuminated
Jan 20
Waxing Gibbous
Jan 26
Full
Feb 3
Last Quarter
Feb 10
New
Feb 17
First Quarter

Hourly Weather History & Observations

Time (CST) Temp. Windchill Dew Point Humidity Pressure Visibility Wind Dir Wind Speed Gust Speed Precip Events Conditions
12:12 AM 5.0 °F -9.1 °F -0.4 °F 78% 30.21 in 7.0 mi NW 9.2 mph 24.2 mph N/A   Scattered Clouds
12:31 AM 5.0 °F -10.8 °F -0.4 °F 78% 30.21 in 5.0 mi NW 11.5 mph 19.6 mph N/A   Haze
12:51 AM 5.0 °F -13.0 °F -0.4 °F 78% 30.23 in 7.0 mi NW 15.0 mph 19.6 mph N/A   Scattered Clouds
1:11 AM 3.2 °F -13.1 °F -2.2 °F 78% 30.22 in 10.0 mi NNW 11.5 mph 23.0 mph N/A   Scattered Clouds
1:31 AM 3.2 °F -12.2 °F -0.4 °F 85% 30.23 in 10.0 mi NW 10.4 mph 17.3 mph N/A   Clear
1:51 AM 3.2 °F -12.2 °F -0.4 °F 85% 30.25 in 10.0 mi NW 10.4 mph 19.6 mph N/A   Clear
2:11 AM 3.2 °F -12.2 °F -0.4 °F 85% 30.26 in 7.0 mi WNW 10.4 mph 19.6 mph N/A   Scattered Clouds
2:31 AM 3.2 °F -11.3 °F -0.4 °F 85% 30.26 in 7.0 mi WNW 9.2 mph - N/A   Scattered Clouds
2:51 AM 3.2 °F -11.3 °F -2.2 °F 78% 30.27 in 10.0 mi NW 9.2 mph 17.3 mph N/A   Clear
3:11 AM 3.2 °F -11.3 °F -2.2 °F 78% 30.28 in 7.0 mi WNW 9.2 mph 18.4 mph N/A   Clear
3:31 AM 3.2 °F -13.1 °F -0.4 °F 85% 30.28 in 7.0 mi NW 11.5 mph 18.4 mph N/A   Clear
3:51 AM 3.2 °F -10.3 °F -2.2 °F 78% 30.28 in 10.0 mi NW 8.1 mph 18.4 mph N/A   Clear
4:11 AM 3.2 °F -13.1 °F -2.2 °F 78% 30.27 in 10.0 mi NW 11.5 mph 17.3 mph N/A   Clear
4:31 AM 1.4 °F -12.5 °F -2.2 °F 85% 30.28 in 10.0 mi NW 8.1 mph 16.1 mph N/A   Clear
4:51 AM 1.4 °F -11.3 °F -2.2 °F 85% 30.28 in 10.0 mi NW 6.9 mph - N/A   Clear
5:11 AM 1.4 °F -11.3 °F -2.2 °F 85% 30.27 in 10.0 mi NW 6.9 mph - N/A   Clear
5:31 AM 1.4 °F -11.3 °F -2.2 °F 85% 30.27 in 10.0 mi NW 6.9 mph - N/A   Clear
6:11 AM 1.4 °F -11.3 °F -2.2 °F 85% 30.28 in 10.0 mi NW 6.9 mph - N/A   Clear
6:31 AM 1.4 °F -11.3 °F -2.2 °F 85% 30.28 in 10.0 mi NNW 6.9 mph - N/A   Clear
6:51 AM 1.4 °F -11.3 °F -2.2 °F 85% 30.29 in 10.0 mi NW 6.9 mph - N/A   Clear
7:11 AM 1.4 °F -11.3 °F -2.2 °F 85% 30.28 in 10.0 mi NW 6.9 mph - N/A   Clear
7:31 AM 3.2 °F -6.2 °F -2.2 °F 78% 30.28 in 10.0 mi NW 4.6 mph - N/A   Clear
7:51 AM 3.2 °F -7.8 °F -2.2 °F 78% 30.30 in 10.0 mi WNW 5.8 mph - N/A   Clear
8:11 AM 3.2 °F -6.2 °F -2.2 °F 78% 30.30 in 10.0 mi WNW 4.6 mph - N/A   Scattered Clouds
8:32 AM 3.2 °F -9.1 °F -2.2 °F 78% 30.30 in 10.0 mi WNW 6.9 mph - N/A   Clear
8:51 AM 3.2 °F -9.1 °F -2.2 °F 78% 30.32 in 10.0 mi NW 6.9 mph - N/A   Clear
9:11 AM 3.2 °F -10.3 °F -0.4 °F 85% 30.33 in 10.0 mi WNW 8.1 mph - N/A   Clear
9:32 AM 3.2 °F -11.3 °F -0.4 °F 85% 30.33 in 10.0 mi WNW 9.2 mph - N/A   Clear
9:51 AM 5.0 °F -9.1 °F -0.4 °F 78% 30.33 in 10.0 mi WNW 9.2 mph - N/A   Clear
10:11 AM 6.8 °F -3.5 °F -0.4 °F 72% 30.35 in 10.0 mi NW 5.8 mph - N/A   Clear
10:32 AM 6.8 °F -5.9 °F -0.4 °F 72% 30.35 in 10.0 mi WNW 8.1 mph - N/A   Clear
10:51 AM 6.8 °F -5.9 °F -0.4 °F 72% 30.34 in 10.0 mi West 8.1 mph - N/A   Clear
11:11 AM 6.8 °F -7.8 °F -0.4 °F 72% 30.34 in 10.0 mi WNW 10.4 mph - N/A   Clear
11:31 AM 8.6 °F -4.7 °F -0.4 °F 67% 30.34 in 10.0 mi WNW 9.2 mph - N/A   Clear
11:51 AM 8.6 °F -3.7 °F -0.4 °F 67% 30.33 in 10.0 mi WNW 8.1 mph - N/A   Clear
12:11 PM 8.6 °F -4.7 °F -0.4 °F 67% 30.33 in 10.0 mi WNW 9.2 mph 17.3 mph N/A   Scattered Clouds
12:31 PM 8.6 °F -4.7 °F -0.4 °F 67% 30.33 in 10.0 mi NW 9.2 mph 18.4 mph N/A   Scattered Clouds
12:51 PM 10.4 °F -3.3 °F 1.4 °F 67% 30.31 in 10.0 mi WNW 10.4 mph 19.6 mph N/A   Scattered Clouds
1:11 PM 10.4 °F -3.3 °F 1.4 °F 67% 30.30 in 10.0 mi WNW 10.4 mph - N/A   Scattered Clouds
1:31 PM 10.4 °F -2.4 °F 1.4 °F 67% 30.30 in 10.0 mi NW 9.2 mph - N/A   Scattered Clouds
1:51 PM 12.2 °F -1.0 °F 1.4 °F 62% 30.29 in 10.0 mi WNW 10.4 mph 16.1 mph N/A   Scattered Clouds
2:11 PM 12.2 °F 0.7 °F 1.4 °F 62% 30.29 in 10.0 mi West 8.1 mph - N/A   Scattered Clouds
2:31 PM 12.2 °F -1.8 °F 3.2 °F 67% 30.29 in 10.0 mi WNW 11.5 mph 19.6 mph N/A   Clear
2:51 PM 12.2 °F -2.5 °F 3.2 °F 67% 30.29 in 10.0 mi WNW 12.7 mph 19.6 mph N/A   Mostly Cloudy
3:11 PM 12.2 °F 0.7 °F 3.2 °F 67% 30.28 in 10.0 mi WNW 8.1 mph 19.6 mph N/A   Scattered Clouds
3:31 PM 12.2 °F -0.2 °F 3.2 °F 67% 30.29 in 10.0 mi West 9.2 mph - N/A   Scattered Clouds
3:51 PM 10.4 °F -3.3 °F 3.2 °F 73% 30.28 in 10.0 mi WNW 10.4 mph 17.3 mph N/A   Scattered Clouds
4:11 PM 10.4 °F -2.4 °F 3.2 °F 73% 30.28 in 10.0 mi West 9.2 mph - N/A   Mostly Cloudy
4:31 PM 10.4 °F -3.3 °F 3.2 °F 73% 30.27 in 10.0 mi West 10.4 mph 16.1 mph N/A   Mostly Cloudy
4:51 PM 10.4 °F -1.5 °F 3.2 °F 73% 30.27 in 10.0 mi West 8.1 mph - N/A   Scattered Clouds
5:11 PM 10.4 °F -2.4 °F 3.2 °F 73% 30.26 in 10.0 mi West 9.2 mph - N/A   Mostly Cloudy
5:31 PM 10.4 °F -2.4 °F 5.0 °F 79% 30.25 in 10.0 mi West 9.2 mph - N/A   Scattered Clouds
5:51 PM 10.4 °F -1.5 °F 5.0 °F 79% 30.25 in 10.0 mi WNW 8.1 mph - N/A   Scattered Clouds
6:11 PM 10.4 °F -4.1 °F 5.0 °F 79% 30.25 in 10.0 mi WNW 11.5 mph 16.1 mph N/A   Mostly Cloudy
6:51 PM 10.4 °F -4.8 °F 6.8 °F 85% 30.25 in 4.0 mi NW 12.7 mph 18.4 mph N/A Snow Light Snow
7:11 PM 10.4 °F -4.1 °F 6.8 °F 85% 30.25 in 4.0 mi WNW 11.5 mph 20.7 mph N/A Snow Light Snow
7:31 PM 10.4 °F -3.3 °F 3.2 °F 73% 30.25 in 10.0 mi WNW 10.4 mph 20.7 mph N/A   Overcast
7:51 PM 10.4 °F -1.5 °F 3.2 °F 73% 30.25 in 10.0 mi NW 8.1 mph - N/A   Overcast
8:11 PM 8.6 °F -6.3 °F 3.2 °F 79% 30.24 in 10.0 mi WNW 11.5 mph 18.4 mph N/A   Mostly Cloudy
8:31 PM 8.6 °F -7.0 °F 3.2 °F 79% 30.23 in 5.0 mi WNW 12.7 mph 18.4 mph N/A Snow Light Snow
8:51 PM 8.6 °F -7.7 °F 5.0 °F 85% 30.23 in 2.5 mi NW 13.8 mph 20.7 mph N/A Snow Light Snow
9:12 PM 6.8 °F -11.3 °F -0.4 °F 72% 30.23 in 7.0 mi NW 16.1 mph 23.0 mph N/A   Mostly Cloudy
9:31 PM 6.8 °F -5.9 °F -0.4 °F 72% 30.24 in 10.0 mi NW 8.1 mph 17.3 mph N/A   Scattered Clouds
9:51 PM 5.0 °F -10.8 °F -0.4 °F 78% 30.24 in 10.0 mi WNW 11.5 mph 20.7 mph N/A   Clear
10:12 PM 3.2 °F -10.3 °F -2.2 °F 78% 30.24 in 10.0 mi WNW 8.1 mph 16.1 mph N/A   Clear
10:31 PM 3.2 °F -10.3 °F -2.2 °F 78% 30.24 in 10.0 mi NW 8.1 mph - N/A   Clear
10:51 PM 3.2 °F -12.2 °F -0.4 °F 85% 30.25 in 4.0 mi NW 10.4 mph 18.4 mph N/A   Haze
11:12 PM 3.2 °F -13.9 °F -2.2 °F 78% 30.24 in 4.0 mi NW 12.7 mph 19.6 mph N/A   Haze
11:31 PM 3.2 °F -13.9 °F -2.2 °F 78% 30.24 in 10.0 mi NW 12.7 mph 20.7 mph N/A   Clear
11:51 PM 1.4 °F -16.9 °F -4.0 °F 78% 30.24 in 10.0 mi NW 13.8 mph 21.9 mph N/A   Clear